Location: Ay?beleni
(36.6500°N, 30.3000°E)
Time: 03:22:54
(UTC+00:00)

Cosmos 405 Rocket - Pass Details

Date: 16 October 2021
Orbit: 488 x 551 km, 81.3° (Epoch: 08 December)

Event Time Altitude Azimuth Distance (km) Brightness Sun altitude
Rises 17:01:00 0° 349° (N) 2,674 6.5 -20.8°
Reaches altitude 10° 17:03:08 10° 348° (NNW) 1,791 5.6 -21.2°
Maximum altitude 17:07:05 76° 263° (W) 560 2.8 -22.0°
Enters shadow 17:09:14 26° 181° (S) 1,091 4.2 -22.5°
